[[{"header":{"parameterUnit":"m.s-1","parameterCategory":2,"la1":30.2991,"la2":30.254,"lo1":-89.0895,"lo2":-89.0444,"dy":0.0017,"dx":0.0017,"nx":28,"ny":28,"refTime":"2023-08-17T03:00:00:Z","depth":"0","parameterNumber":2,"parameterNumberName":"U-component_of_CURRENTS"},"data":[0,0,0,0,0,0,0,0,0,0,0,0,0,0,0,0,0,0,0,0,0,0,0,0,0,0,0,0,0,0,0,0,0,0,0,0,0,0,0,0,0,0,0,0,0,0,0,0,0,0,0,0,0,0,0,0,0,0,-0.2257,-0.2257,0,-0.2261,-0.2261,-0.2261,-0.2305,-0.2306,-0.2307,-0.2308,-0.2379,-0.238,-0.2381,0,0,0,0,0,0,0,0,0,0,0,0,0,-0.2343,-0.2341,-0.2257,-0.2257,-0.2256,-0.2261,-0.2261,-0.2261,-0.2305,-0.2306,-0.2307,-0.2308,-0.2378,-0.238,-0.2381,0,0,0,0,0,0,0,0,0,0,0,0,0,-0.2324,-0.2341,-0.2257,-0.2277,-0.2279,-0.2261,-0.2261,-0.2261,-0.2305,-0.2306,-0.2307,-0.2309,-0.2378,-0.238,-0.2381,-0.2363,0,0,-0.2386,-0.2387,0,0,0,0,0,0,0,0,-0.2325,-0.2321,-0.2274,-0.2276,-0.2278,-0.2282,-0.2317,-0.2298,-0.2304,-0.2297,-0.2308,-0.2309,-0.235,-0.2354,-0.2354,-0.2367,-0.237,-0.2386,-0.2387,-0.2388,-0.2388,0,0,0,0,0,0,0,-0.2326,-0.2322,-0.226,-0.2274,-0.2276,-0.2305,-0.2304,-0.2314,-0.2319,-0.2298,-0.2301,-0.2297,-0.2352,-0.2352,-0.2356,-0.2371,-0.2386,-0.2387,-0.2388,-0.2389,-0.236,-0.2358,0,0,0,0,0,0,-0.2317,-0.2322,-0.226,-0.226,-0.2303,-0.2302,-0.2301,-0.2281,-0.2317,-0.2323,-0.2296,-0.2299,-0.2349,-0.2354,-0.2359,-0.2345,-0.2388,-0.2389,-0.239,-0.2361,-0.2359,-0.2358,0,0,0,0,0,0,-0.2318,-0.231,-0.226,-0.2291,-0.2287,-0.2299,-0.2276,-0.228,-0.2279,-0.2315,-0.2323,-0.229,-0.235,-0.2357,-0.2359,-0.2349,-0.239,-0.2391,-0.2363,-0.2361,-0.2358,-0.2315,0,0,0,0,0,0,-0.232,-0.231,-0.2283,-0.229,-0.2284,-0.224,-0.2275,-0.2279,-0.2274,-0.2278,-0.2312,-0.232,-0.2352,-0.2356,-0.2361,-0.2351,-0.2392,-0.2366,-0.2362,-0.2359,-0.2319,-0.2312,-0.2305,0,0,0,0,0,-0.2323,-0.2268,-0.2282,-0.2274,-0.2249,-0.2238,-0.2238,-0.2254,-0.2272,-0.226,-0.2285,-0.2319,-0.2339,-0.2356,-0.2362,-0.2353,-0.2367,-0.2363,-0.236,-0.2322,-0.2313,-0.2305,0,0,0,0,0,0,-0.2272,-0.2268,-0.2283,-0.2224,-0.2233,-0.2245,-0.2222,-0.2244,-0.2252,-0.2257,-0.23,-0.2309,-0.2311,-0.2324,-0.2342,-0.233,-0.2357,-0.2354,-0.2327,-0.2319,-0.2312,-0.2294,-0.2394,0,0,0,0,0,-0.2253,-0.2219,-0.2231,-0.2183,-0.2185,-0.2206,-0.22,-0.2219,-0.223,-0.2235,-0.2261,-0.228,-0.2296,-0.2302,-0.2317,-0.2306,-0.2308,-0.23,-0.2293,-0.2288,-0.2273,-0.2271,-0.2263,-0.2345,-0.2345,-0.2345,0,0,-0.2218,-0.221,-0.219,-0.2173,-0.2178,-0.2171,-0.2206,-0.2191,-0.219,-0.224,-0.2235,-0.2261,-0.2287,-0.2284,-0.2284,-0.2296,-0.226,-0.2283,-0.2278,-0.2267,-0.2266,-0.2258,-0.2252,-0.2342,-0.2343,-0.2343,0,0,-0.2145,-0.2129,-0.2093,-0.21,-0.2106,-0.2124,-0.2119,-0.2136,-0.2147,-0.2147,-0.2186,-0.2196,-0.2214,-0.2232,-0.2244,-0.22,-0.2228,-0.2206,-0.2157,-0.2155,-0.2149,-0.2144,-0.2119,-0.2112,-0.2198,-0.2198,-0.2198,0,-0.2104,-0.2065,-0.208,-0.2061,-0.2056,-0.2102,-0.2081,-0.2095,-0.2112,-0.2116,-0.2137,-0.216,-0.2188,-0.2187,-0.2175,-0.2188,-0.2183,-0.2194,-0.2148,-0.2143,-0.2138,-0.2115,-0.2108,-0.2196,-0.2196,-0.2196,-0.2197,0,-0.203,-0.2003,-0.1978,-0.1978,-0.1976,-0.1957,-0.1993,-0.1997,-0.2022,-0.2045,-0.205,-0.2082,-0.2096,-0.2107,-0.2131,-0.2109,-0.2114,-0.2147,-0.2175,-0.2128,-0.2105,-0.2099,-0.2192,-0.2193,-0.2194,-0.2194,0,0,-0.193,-0.1927,-0.1922,-0.1919,-0.1933,-0.1926,-0.1923,-0.1934,-0.1936,-0.196,-0.1952,-0.1979,-0.2006,-0.2017,-0.2051,-0.2047,-0.2011,-0.2075,-0.2076,-0.2059,-0.1986,-0.199,-0.1984,-0.2043,-0.2042,-0.2041,-0.1978,0,-0.1871,-0.1831,-0.1842,-0.1809,-0.1794,-0.1833,-0.1828,-0.1849,-0.1876,-0.1884,-0.192,-0.1929,-0.1971,-0.1978,-0.198,-0.2012,-0.1993,-0.2023,-0.2025,-0.2024,-0.2043,-0.1976,-0.1997,-0.1943,-0.1972,-0.1971,-0.197,0,-0.1799,-0.1787,-0.1744,-0.1741,-0.1737,-0.1727,-0.1736,-0.1738,-0.1771,-0.179,-0.1809,-0.1848,-0.185,-0.1894,-0.1901,-0.192,-0.1935,-0.1956,-0.1955,-0.197,-0.2017,-0.1996,-0.193,-0.1937,-0.196,-0.1961,-0.1961,0,-0.1737,-0.1714,-0.1681,-0.1678,-0.1684,-0.167,-0.1678,-0.1705,-0.1711,-0.1731,-0.1742,-0.1759,-0.1775,-0.1791,-0.1841,-0.1866,-0.1846,-0.1892,-0.19,-0.19,-0.192,-0.1924,-0.187,-0.1874,-0.1874,-0.1874,-0.1874,0,-0.1661,-0.1628,-0.1652,-0.1632,-0.1595,-0.162,-0.1594,-0.1609,-0.1634,-0.1645,-0.169,-0.1708,-0.1753,-0.1767,-0.18,-0.182,-0.1811,-0.1865,-0.1879,-0.1903,-0.1906,-0.1919,-0.1889,-0.1872,-0.1872,-0.1873,-0.1873,0,-0.1561,-0.1586,-0.1546,-0.1556,-0.1559,-0.1529,-0.1542,-0.1536,-0.1572,-0.1585,-0.159,-0.1652,-0.168,-0.1714,-0.1741,-0.1771,-0.1749,-0.1796,-0.1807,-0.1824,-0.1848,-0.1814,-0.1657,-0.1581,-0.1783,-0.1782,-0.1782,0,-0.1482,-0.1459,-0.148,-0.1473,-0.1466,-0.145,-0.1447,-0.1487,-0.1499,-0.1567,-0.1572,-0.161,-0.1653,-0.1679,-0.1736,-0.1755,-0.1718,-0.1768,-0.1823,-0.1822,-0.1795,-0.1719,-0.166,-0.1822,-0.1822,-0.1822,-0.1822,0,-0.1321,-0.1351,-0.1339,-0.1348,-0.1344,-0.1341,-0.1352,-0.1359,-0.1426,-0.1463,-0.1523,-0.1562,-0.1643,-0.1709,-0.1739,-0.1753,-0.1704,-0.1771,-0.1774,-0.1805,-0.1712,-0.1658,-0.1875,-0.1823,-0.1823,-0.1823,-0.1823,-0.1823,-0.1188,-0.1168,-0.1192,-0.1189,-0.1209,-0.1221,-0.1193,-0.125,-0.1272,-0.1329,-0.1448,-0.1523,-0.1702,-0.1777,-0.1774,-0.1815,-0.1709,-0.1812,-0.1762,-0.1679,-0.162,-0.182,-0.1792,-0.1792,-0.1792,-0.1791,-0.1791,0,-0.101,-0.1032,-0.1029,-0.1043,-0.1046,-0.1097,-0.1118,-0.1097,-0.1115,-0.1233,-0.1311,-0.1578,-0.1704,-0.1827,-0.1946,-0.1858,-0.1763,-0.1775,-0.1694,-0.1628,-0.1837,-0.1861,-0.1844,-0.1844,-0.1844,-0.1844,-0.1844,-0.1844,-0.0915,-0.0882,-0.0913,-0.0875,-0.0901,-0.0873,-0.0874,-0.0878,-0.0934,-0.1053,-0.1229,-0.1401,-0.1663,-0.1934,-0.1968,-0.1878,-0.1713,-0.1635,-0.1536,-0.1757,-0.1758,-0.1759,-0.1779,-0.1745,-0.1744,-0.1334,-0.1331,-0.1328]},{"header":{"parameterUnit":"m.s-1","parameterCategory":2,"la1":30.2991,"la2":30.254,"lo1":-89.0895,"lo2":-89.0444,"dy":0.0017,"dx":0.0017,"nx":28,"ny":28,"refTime":"2023-08-17T03:00:00:Z","depth":"0","parameterNumber":3,"parameterNumberName":"V-component_of_CURRENTS"},"data":[0,0,0,0,0,0,0,0,0,0,0,0,0,0,0,0,0,0,0,0,0,0,0,0,0,0,0,0,0,0,0,0,0,0,0,0,0,0,0,0,0,0,0,0,0,0,0,0,0,0,0,0,0,0,0,0,0,0,-0.0476,-0.0475,0,-0.0443,-0.0442,-0.0442,-0.0439,-0.044,-0.044,-0.0441,-0.0397,-0.0395,-0.0394,0,0,0,0,0,0,0,0,0,0,0,0,0,-0.0471,-0.0471,-0.0476,-0.0475,-0.0475,-0.0443,-0.0442,-0.0442,-0.0439,-0.044,-0.044,-0.0441,-0.0397,-0.0396,-0.0394,0,0,0,0,0,0,0,0,0,0,0,0,0,-0.0458,-0.0471,-0.0476,-0.0471,-0.047,-0.0443,-0.0442,-0.0441,-0.0439,-0.044,-0.044,-0.0441,-0.0398,-0.0396,-0.0393,-0.0366,0,0,-0.0386,-0.0385,0,0,0,0,0,0,0,0,-0.0459,-0.0458,-0.0472,-0.0471,-0.047,-0.0446,-0.0424,-0.0416,-0.0439,-0.045,-0.0441,-0.0441,-0.0412,-0.0409,-0.04,-0.0364,-0.0362,-0.0386,-0.0385,-0.0384,-0.0383,0,0,0,0,0,0,0,-0.046,-0.0459,-0.0462,-0.0471,-0.047,-0.0447,-0.0447,-0.0422,-0.0427,-0.0449,-0.0449,-0.0446,-0.0412,-0.0403,-0.0399,-0.0361,-0.0386,-0.0384,-0.0383,-0.0382,-0.0273,-0.0271,0,0,0,0,0,0,-0.0468,-0.046,-0.0463,-0.0461,-0.0467,-0.0447,-0.0446,-0.0453,-0.0428,-0.0425,-0.0446,-0.0446,-0.0406,-0.0402,-0.0398,-0.0349,-0.0384,-0.0381,-0.038,-0.0274,-0.0272,-0.0271,0,0,0,0,0,0,-0.0468,-0.0469,-0.0464,-0.046,-0.0458,-0.0447,-0.0454,-0.0452,-0.044,-0.0425,-0.0422,-0.0436,-0.0407,-0.0401,-0.0373,-0.0348,-0.038,-0.0378,-0.0276,-0.0274,-0.0272,-0.026,0,0,0,0,0,0,-0.0469,-0.047,-0.0466,-0.0461,-0.0458,-0.0438,-0.0453,-0.0451,-0.0438,-0.0438,-0.0416,-0.0413,-0.0407,-0.0377,-0.0371,-0.0345,-0.0376,-0.0278,-0.0275,-0.0272,-0.0263,-0.0258,-0.0254,0,0,0,0,0,-0.0469,-0.0445,-0.0467,-0.0466,-0.0458,-0.0437,-0.0432,-0.0426,-0.0436,-0.042,-0.0413,-0.0413,-0.0354,-0.0374,-0.0367,-0.034,-0.0279,-0.0276,-0.0273,-0.0265,-0.0259,-0.0254,0,0,0,0,0,0,-0.0416,-0.0443,-0.0466,-0.0448,-0.0446,-0.0437,-0.0414,-0.0422,-0.0403,-0.0404,-0.0399,-0.0394,-0.0356,-0.0348,-0.0369,-0.0298,-0.0314,-0.0309,-0.031,-0.0305,-0.03,-0.0314,-0.0374,0,0,0,0,0,-0.0413,-0.0421,-0.0433,-0.0419,-0.0419,-0.0422,-0.041,-0.0413,-0.0401,-0.0394,-0.0384,-0.0364,-0.0336,-0.0323,-0.0296,-0.0262,-0.0262,-0.0237,-0.0233,-0.0229,-0.0234,-0.02,-0.0194,-0.026,-0.026,-0.026,0,0,-0.0387,-0.0404,-0.0406,-0.0412,-0.0411,-0.0404,-0.0415,-0.0396,-0.039,-0.0391,-0.0368,-0.0347,-0.0322,-0.0284,-0.0265,-0.0276,-0.0212,-0.0225,-0.0223,-0.023,-0.0196,-0.019,-0.0185,-0.0258,-0.0258,-0.0259,0,0,-0.0344,-0.0359,-0.0358,-0.0361,-0.0367,-0.0372,-0.0369,-0.0365,-0.0362,-0.0341,-0.0336,-0.0302,-0.0268,-0.0243,-0.0226,-0.0179,-0.0189,-0.0169,-0.0162,-0.0129,-0.0124,-0.0119,-0.0126,-0.0122,-0.017,-0.017,-0.017,0,-0.0315,-0.0328,-0.0345,-0.0343,-0.0348,-0.0361,-0.0357,-0.0346,-0.0334,-0.0337,-0.033,-0.0275,-0.0244,-0.0204,-0.0185,-0.0169,-0.0173,-0.0188,-0.0125,-0.0121,-0.0116,-0.0124,-0.012,-0.0169,-0.0169,-0.0169,-0.0169,0,-0.0286,-0.0293,-0.0282,-0.031,-0.0306,-0.0299,-0.0306,-0.0301,-0.0305,-0.0305,-0.027,-0.0227,-0.0203,-0.0173,-0.0164,-0.0115,-0.0137,-0.0124,-0.0145,-0.0109,-0.0119,-0.0115,-0.0167,-0.0168,-0.0168,-0.0168,0,0,-0.025,-0.0266,-0.0268,-0.0291,-0.0298,-0.03,-0.0287,-0.0295,-0.0306,-0.0269,-0.0273,-0.0193,-0.0187,-0.0167,-0.0141,-0.0103,-0.0065,-0.0104,-0.0103,-0.0124,-0.0028,-0.0106,-0.0109,-0.0048,-0.0047,-0.0046,-0.0054,0,-0.0236,-0.0245,-0.0251,-0.026,-0.0273,-0.0286,-0.0282,-0.0287,-0.0287,-0.0289,-0.0242,-0.0221,-0.0181,-0.0169,-0.0121,-0.0081,-0.0052,-0.0067,-0.0048,-0.0049,-0.0132,-0.0105,-0.0175,-0.0194,-0.0051,-0.005,-0.005,0,-0.0225,-0.0242,-0.0251,-0.0283,-0.0288,-0.0287,-0.032,-0.0316,-0.0314,-0.0312,-0.0284,-0.0263,-0.0202,-0.0171,-0.0085,-0.0103,-0.0066,-0.003,-0.003,-0.0105,-0.0118,-0.02,-0.0192,-0.0066,-0.0043,-0.0044,-0.0044,0,-0.0236,-0.0248,-0.0269,-0.0276,-0.0298,-0.0307,-0.0318,-0.0326,-0.0337,-0.033,-0.0339,-0.0277,-0.025,-0.0178,-0.0109,-0.0097,-0.0034,-0.0007,-0.0046,-0.0052,-0.011,-0.0124,0.0012,0.0053,0.0053,0.0053,0.0053,0,-0.024,-0.0254,-0.0279,-0.0293,-0.0323,-0.0328,-0.0355,-0.0359,-0.0368,-0.0389,-0.0352,-0.0353,-0.0247,-0.0208,-0.0134,-0.0096,-0.0053,-0.005,-0.0053,-0.011,-0.0123,-0.0016,0.0124,0.0053,0.0053,0.0053,0.0053,0,-0.0239,-0.0256,-0.0283,-0.0316,-0.0329,-0.0349,-0.038,-0.0402,-0.0405,-0.0431,-0.0428,-0.0404,-0.0367,-0.029,-0.019,-0.0146,-0.0008,-0.0084,-0.0184,-0.0198,-0.0129,0.0014,0.0232,0.0299,-0.013,-0.0132,-0.0133,0,-0.0233,-0.0251,-0.03,-0.0325,-0.0337,-0.037,-0.0398,-0.0416,-0.0443,-0.0465,-0.0483,-0.0468,-0.0485,-0.0403,-0.0335,-0.0269,-0.0066,-0.0263,-0.0237,-0.0139,0.002,0.0181,0.0235,-0.0309,-0.0312,-0.0315,-0.0316,0,-0.0223,-0.0245,-0.0271,-0.0327,-0.0365,-0.0409,-0.0448,-0.0478,-0.0506,-0.0544,-0.0585,-0.0604,-0.0587,-0.0581,-0.0513,-0.0442,-0.0136,-0.0313,-0.0161,-0.0069,0.0071,0.0134,-0.0307,-0.0338,-0.0335,-0.0334,-0.0333,-0.0332,-0.0208,-0.0228,-0.0273,-0.0322,-0.0375,-0.0435,-0.047,-0.0527,-0.0586,-0.067,-0.0683,-0.0795,-0.0753,-0.0702,-0.0597,-0.0425,-0.028,-0.0345,-0.0173,-0.0016,0.0047,-0.0471,-0.0534,-0.0533,-0.0532,-0.0531,-0.0531,0,-0.0192,-0.0223,-0.0266,-0.0335,-0.0393,-0.0423,-0.0499,-0.0542,-0.0625,-0.0785,-0.0863,-0.0994,-0.0898,-0.0763,-0.052,-0.0318,-0.0176,-0.016,0.0076,0.0127,-0.0324,-0.0341,-0.0426,-0.0426,-0.0427,-0.0427,-0.0427,-0.0427,-0.0184,-0.0223,-0.0253,-0.0334,-0.0386,-0.0465,-0.0508,-0.0584,-0.0711,-0.0922,-0.1117,-0.1253,-0.0945,-0.0371,-0.0017,0.0025,0.0319,0.0339,0.0523,0.0219,0.0215,0.0212,0.0225,0.026,0.0261,0.0886,0.0892,0.0897]}],[{"header":{"parameterUnit":"m.s-1","parameterCategory":2,"la1":30.2991,"la2":30.254,"lo1":-89.0895,"lo2":-89.0444,"dy":0.0017,"dx":0.0017,"nx":28,"ny":28,"refTime":"2023-08-17T03:00:00:Z","depth":"2","parameterNumber":2,"parameterNumberName":"U-component_of_CURRENTS"},"data":[0,0,0,0,0,0,0,0,0,0,0,0,0,0,0,0,0,0,0,0,0,0,0,0,0,0,0,0,0,0,0,0,0,0,0,0,0,0,0,0,0,0,0,0,0,0,0,0,0,0,0,0,0,0,0,0,0,0,-0.2217,-0.2217,0,-0.2188,-0.2188,-0.2187,-0.2198,-0.2199,-0.22,-0.2201,-0.2175,-0.2174,-0.2172,0,0,0,0,0,0,0,0,0,0,0,0,0,-0.2182,-0.2183,-0.2217,-0.2217,-0.2217,-0.2188,-0.2188,-0.2187,-0.2198,-0.2199,-0.22,-0.2201,-0.2176,-0.2174,-0.2172,0,0,0,0,0,0,0,0,0,0,0,0,0,-0.2177,-0.2183,-0.2217,-0.2221,-0.2221,-0.2189,-0.2188,-0.2187,-0.2198,-0.2199,-0.22,-0.2202,-0.2176,-0.2174,-0.2172,-0.213,0,0,-0.2165,-0.2164,0,0,0,0,0,0,0,0,-0.2177,-0.2178,-0.2221,-0.2221,-0.2221,-0.2201,-0.2166,-0.2169,-0.2197,-0.2204,-0.2201,-0.2202,-0.2185,-0.2182,-0.2169,-0.2129,-0.2128,-0.2165,-0.2163,-0.2162,-0.2162,0,0,0,0,0,0,0,-0.2178,-0.2179,-0.2203,-0.222,-0.2221,-0.219,-0.2191,-0.2166,-0.2185,-0.2203,-0.2205,-0.2205,-0.2185,-0.2172,-0.2169,-0.2128,-0.2165,-0.2163,-0.2161,-0.216,-0.2055,-0.2054,0,0,0,0,0,0,-0.2191,-0.218,-0.2204,-0.2202,-0.2205,-0.219,-0.2191,-0.2203,-0.2185,-0.2184,-0.2204,-0.2206,-0.2175,-0.2172,-0.2168,-0.2133,-0.2162,-0.216,-0.2159,-0.2056,-0.2055,-0.2053,0,0,0,0,0,0,-0.219,-0.2194,-0.2205,-0.2192,-0.2191,-0.219,-0.2203,-0.2202,-0.2196,-0.2186,-0.2185,-0.22,-0.2176,-0.2171,-0.2148,-0.2132,-0.2159,-0.2157,-0.2058,-0.2056,-0.2054,-0.2052,0,0,0,0,0,0,-0.2189,-0.2194,-0.2204,-0.2193,-0.2193,-0.2191,-0.2202,-0.2201,-0.2195,-0.2197,-0.2182,-0.2181,-0.2177,-0.2151,-0.2145,-0.2129,-0.2155,-0.206,-0.2057,-0.2055,-0.2054,-0.205,-0.2047,0,0,0,0,0,-0.2188,-0.2202,-0.2205,-0.2208,-0.2209,-0.2191,-0.2187,-0.2188,-0.2194,-0.2187,-0.2176,-0.2182,-0.213,-0.2148,-0.2142,-0.2124,-0.2061,-0.2058,-0.2055,-0.2056,-0.2051,-0.2047,0,0,0,0,0,0,-0.2204,-0.2204,-0.2208,-0.2225,-0.2211,-0.2194,-0.2188,-0.2186,-0.2169,-0.2172,-0.2165,-0.2162,-0.2135,-0.2122,-0.2143,-0.2083,-0.2095,-0.209,-0.2098,-0.2093,-0.209,-0.2109,-0.2153,0,0,0,0,0,-0.221,-0.2213,-0.2207,-0.2219,-0.221,-0.2196,-0.2189,-0.2187,-0.2173,-0.2168,-0.2156,-0.2136,-0.2112,-0.21,-0.2079,-0.2044,-0.2037,-0.2026,-0.2022,-0.202,-0.2028,-0.2016,-0.2013,-0.2042,-0.2043,-0.2043,0,0,-0.2222,-0.2219,-0.2225,-0.222,-0.2206,-0.2191,-0.2194,-0.2182,-0.2168,-0.2165,-0.214,-0.2125,-0.21,-0.2067,-0.2052,-0.2058,-0.1998,-0.2016,-0.2014,-0.2024,-0.2012,-0.201,-0.2008,-0.204,-0.2041,-0.2041,0,0,-0.2229,-0.2239,-0.2235,-0.222,-0.2202,-0.2189,-0.2186,-0.2165,-0.2156,-0.2128,-0.2121,-0.2101,-0.206,-0.2043,-0.2028,-0.1988,-0.1983,-0.1971,-0.1969,-0.1956,-0.1954,-0.1953,-0.191,-0.1905,-0.1968,-0.1968,-0.1968,0,-0.2241,-0.2242,-0.223,-0.2214,-0.2207,-0.2188,-0.2178,-0.2154,-0.213,-0.212,-0.2122,-0.2067,-0.205,-0.2012,-0.2,-0.1983,-0.1966,-0.1991,-0.1954,-0.1953,-0.1951,-0.1908,-0.1903,-0.1967,-0.1967,-0.1967,-0.1968,0,-0.2235,-0.2236,-0.2229,-0.2205,-0.2192,-0.2179,-0.2152,-0.2134,-0.2121,-0.2103,-0.2069,-0.2042,-0.2018,-0.1997,-0.1988,-0.1958,-0.1944,-0.1956,-0.1974,-0.1949,-0.1904,-0.1898,-0.1967,-0.1967,-0.1967,-0.1967,0,0,-0.2245,-0.2232,-0.2226,-0.2217,-0.219,-0.2175,-0.215,-0.2122,-0.2109,-0.2076,-0.2058,-0.2011,-0.2007,-0.1989,-0.1969,-0.1952,-0.1917,-0.1951,-0.195,-0.1923,-0.1865,-0.1807,-0.1795,-0.1928,-0.1928,-0.1928,-0.1827,0,-0.2239,-0.2228,-0.2219,-0.2197,-0.2185,-0.2168,-0.2148,-0.2121,-0.2097,-0.207,-0.2036,-0.201,-0.1997,-0.1989,-0.1969,-0.1941,-0.1906,-0.1942,-0.1881,-0.1878,-0.1843,-0.1789,-0.1618,-0.1511,-0.1822,-0.1821,-0.182,0,-0.2212,-0.2215,-0.2205,-0.2198,-0.2191,-0.2172,-0.2147,-0.2127,-0.2088,-0.2076,-0.2047,-0.2026,-0.1987,-0.1987,-0.1921,-0.1946,-0.1904,-0.1876,-0.1872,-0.1821,-0.1811,-0.159,-0.1489,-0.1811,-0.1811,-0.1812,-0.1813,0,-0.2194,-0.2192,-0.219,-0.2183,-0.2173,-0.2162,-0.2153,-0.2123,-0.2097,-0.2076,-0.2057,-0.2025,-0.1987,-0.1959,-0.1895,-0.1914,-0.1817,-0.1838,-0.1734,-0.1728,-0.1573,-0.1555,-0.1784,-0.1785,-0.1785,-0.1785,-0.1785,0,-0.2171,-0.2155,-0.2179,-0.2166,-0.2147,-0.2156,-0.2123,-0.2112,-0.2094,-0.2049,-0.2053,-0.1998,-0.198,-0.1919,-0.1887,-0.1778,-0.1806,-0.1719,-0.1699,-0.1562,-0.1545,-0.1811,-0.1815,-0.1781,-0.1782,-0.1783,-0.1783,0,-0.2108,-0.2134,-0.2113,-0.2127,-0.2122,-0.2099,-0.2078,-0.2056,-0.2063,-0.2006,-0.1999,-0.1957,-0.1883,-0.1847,-0.1777,-0.1737,-0.1671,-0.1622,-0.1447,-0.141,-0.1591,-0.1597,-0.1504,-0.1501,-0.1499,-0.1497,-0.1495,0,-0.2068,-0.2058,-0.206,-0.2038,-0.2028,-0.201,-0.1987,-0.2012,-0.1991,-0.1956,-0.1916,-0.1849,-0.1772,-0.165,-0.1593,-0.1518,-0.156,-0.1286,-0.1303,-0.1572,-0.1563,-0.1572,-0.158,-0.1073,-0.1068,-0.1064,-0.1061,0,-0.1975,-0.1975,-0.1961,-0.1937,-0.191,-0.1897,-0.188,-0.1876,-0.1897,-0.1861,-0.1798,-0.1747,-0.1619,-0.1452,-0.1355,-0.1283,-0.1301,-0.1201,-0.1503,-0.1192,-0.1163,-0.1156,-0.1178,-0.1024,-0.1028,-0.1031,-0.1032,-0.1034,-0.1878,-0.1853,-0.1847,-0.1805,-0.1789,-0.1792,-0.1763,-0.1779,-0.1759,-0.1733,-0.171,-0.1583,-0.144,-0.1254,-0.1129,-0.1005,-0.1112,-0.0991,-0.1004,-0.1021,-0.1011,-0.0982,-0.0804,-0.0806,-0.0808,-0.081,-0.0811,0,-0.1767,-0.1744,-0.1714,-0.169,-0.166,-0.1677,-0.168,-0.1659,-0.1627,-0.1647,-0.1606,-0.13,-0.1146,-0.1002,-0.0781,-0.0713,-0.0723,-0.0619,-0.0614,-0.0647,-0.0677,-0.0653,-0.0349,-0.0349,-0.0348,-0.0348,0,0,-0.1704,-0.165,-0.1652,-0.1571,-0.1544,-0.1493,-0.1487,-0.147,-0.1481,-0.139,-0.1295,-0.1381,-0.1138,-0.0882,-0.0706,-0.0519,-0.0632,-0.0478,-0.0838,-0.0882,-0.0915,-0.0852,-0.0845,0,0,0,0,0]},{"header":{"parameterUnit":"m.s-1","parameterCategory":2,"la1":30.2991,"la2":30.254,"lo1":-89.0895,"lo2":-89.0444,"dy":0.0017,"dx":0.0017,"nx":28,"ny":28,"refTime":"2023-08-17T03:00:00:Z","depth":"2","parameterNumber":3,"parameterNumberName":"V-component_of_CURRENTS"},"data":[0,0,0,0,0,0,0,0,0,0,0,0,0,0,0,0,0,0,0,0,0,0,0,0,0,0,0,0,0,0,0,0,0,0,0,0,0,0,0,0,0,0,0,0,0,0,0,0,0,0,0,0,0,0,0,0,0,0,-0.0001,-0.0,0,0.0069,0.007,0.0071,0.0072,0.0071,0.007,0.0069,0.0154,0.0157,0.016,0,0,0,0,0,0,0,0,0,0,0,0,0,-0.008,-0.0079,-0.0001,-0.0,0.0001,0.0069,0.007,0.0071,0.0072,0.0071,0.007,0.0069,0.0153,0.0156,0.016,0,0,0,0,0,0,0,0,0,0,0,0,0,-0.0031,-0.0079,-0.0001,0.0009,0.0011,0.0069,0.007,0.0071,0.0072,0.0071,0.007,0.0068,0.0152,0.0156,0.0161,0.0217,0,0,0.0175,0.0177,0,0,0,0,0,0,0,0,-0.0034,-0.0028,0.0007,0.0008,0.001,0.006,0.0073,0.0121,0.0073,0.0049,0.0069,0.0068,0.0125,0.0131,0.0148,0.0221,0.0225,0.0175,0.0178,0.018,0.0181,0,0,0,0,0,0,0,-0.0037,-0.0031,0.0027,0.0008,0.001,0.0029,0.0034,0.0083,0.0094,0.0051,0.0051,0.0059,0.0125,0.0143,0.015,0.0226,0.0175,0.0179,0.0182,0.0184,0.0325,0.0326,0,0,0,0,0,0,-0.0048,-0.0034,0.0025,0.0029,-0.0016,0.0031,0.0037,0.0046,0.0094,0.0099,0.006,0.0059,0.0136,0.0145,0.0153,0.0157,0.018,0.0184,0.0187,0.0324,0.0325,0.0326,0,0,0,0,0,0,-0.005,-0.0043,0.0022,-0.0001,0.0008,0.0034,0.0044,0.0048,0.0049,0.01,0.0106,0.0055,0.0135,0.0146,0.0179,0.0162,0.0187,0.0191,0.0323,0.0324,0.0326,0.0206,0,0,0,0,0,0,-0.0052,-0.0044,-0.0048,-0.0002,0.0009,0.0032,0.0046,0.005,0.0057,0.0056,0.0099,0.0106,0.0135,0.0172,0.0184,0.0169,0.0194,0.0322,0.0323,0.0325,0.0209,0.0204,0.0199,0,0,0,0,0,-0.0055,-0.0061,-0.0048,-0.0042,0.0005,0.0031,0.0038,0.0052,0.0058,0.005,0.0085,0.0104,0.0192,0.0177,0.019,0.0176,0.0321,0.0323,0.0325,0.0211,0.0205,0.0199,0,0,0,0,0,0,-0.0097,-0.0059,-0.0045,-0.0039,-0.0015,0.003,0.0026,0.0046,0.007,0.0066,0.0114,0.0124,0.0147,0.0193,0.0174,0.0229,0.0262,0.0267,0.0171,0.0165,0.016,0.0134,0.0198,0,0,0,0,0,-0.0105,-0.0101,-0.006,-0.0056,-0.0049,-0.001,0.0001,0.0014,0.0046,0.0053,0.0088,0.0134,0.0174,0.0189,0.0235,0.0265,0.0305,0.0271,0.0265,0.026,0.0253,0.0313,0.0311,0.0333,0.0333,0.0333,0,0,-0.0115,-0.0097,-0.0093,-0.0065,-0.0046,-0.0038,-0.0009,-0.0001,0.0005,0.0062,0.0074,0.0116,0.0181,0.0204,0.022,0.0233,0.0273,0.0263,0.0257,0.0253,0.0315,0.0312,0.031,0.0334,0.0334,0.0334,0,0,-0.014,-0.0125,-0.0131,-0.0117,-0.0095,-0.0071,-0.0073,-0.0035,-0.0026,0.0002,0.0042,0.0069,0.0138,0.0168,0.0197,0.02,0.0245,0.0222,0.0166,0.0223,0.0221,0.022,0.0242,0.0244,0.0216,0.0215,0.0215,0,-0.0157,-0.015,-0.013,-0.0134,-0.012,-0.009,-0.0088,-0.0074,-0.003,-0.0013,-0.0012,0.0082,0.0119,0.0156,0.0143,0.0182,0.0217,0.0171,0.0212,0.0211,0.0212,0.0236,0.0239,0.021,0.0211,0.0211,0.0212,0,-0.0181,-0.0177,-0.0183,-0.0174,-0.0164,-0.0157,-0.0131,-0.0123,-0.0103,-0.0076,-0.0041,0.0006,0.0063,0.0074,0.01,0.0125,0.0147,0.0194,0.0212,0.0201,0.0229,0.0234,0.0202,0.0204,0.0206,0.0207,0,0,-0.0206,-0.0198,-0.0199,-0.019,-0.0178,-0.0163,-0.0167,-0.0139,-0.012,-0.0109,-0.0076,-0.0049,-0.0025,0.0011,0.0049,0.0076,0.0085,0.0119,0.0125,0.0113,0.0188,0.0161,0.0164,0.0137,0.0138,0.0139,0.0194,0,-0.0224,-0.0229,-0.022,-0.0218,-0.0213,-0.0189,-0.0181,-0.016,-0.0134,-0.0101,-0.0078,-0.0035,-0.0047,-0.0018,-0.0002,0.0089,0.0098,0.0064,0.0226,0.023,0.0184,0.017,0.0291,0.0347,0.02,0.0201,0.0202,0,-0.0249,-0.0242,-0.0245,-0.0213,-0.0208,-0.021,-0.0171,-0.0161,-0.0126,-0.0101,-0.0086,-0.0048,-0.0026,-0.0018,0.0064,0.0045,0.0091,0.0142,0.0147,0.0167,0.0213,0.0345,0.0363,0.0211,0.0211,0.021,0.0209,0,-0.0268,-0.0254,-0.025,-0.0245,-0.0218,-0.0215,-0.0202,-0.017,-0.0143,-0.0108,-0.0073,-0.0043,-0.0001,0.0047,0.0103,0.0102,0.0203,0.0235,0.0242,0.0241,0.0399,0.0409,0.0285,0.0285,0.0285,0.0285,0.0285,0,-0.029,-0.0286,-0.0261,-0.0264,-0.0245,-0.0228,-0.0206,-0.0187,-0.0142,-0.0107,-0.0083,-0.0042,0.0021,0.0079,0.0116,0.0179,0.0214,0.022,0.0255,0.0358,0.0363,0.0301,0.0302,0.0287,0.0286,0.0286,0.0286,0,-0.0332,-0.0313,-0.0306,-0.0276,-0.0265,-0.0264,-0.0223,-0.02,-0.0155,-0.0107,-0.0096,-0.0022,0.0032,0.0079,0.0182,0.0212,0.0274,0.0286,0.0369,0.041,0.0267,0.0261,0.031,0.031,0.0309,0.0309,0.0309,0,-0.0358,-0.036,-0.0328,-0.0325,-0.0322,-0.0304,-0.0287,-0.0231,-0.0197,-0.0099,-0.0073,-0.0007,0.0028,0.0138,0.026,0.0326,0.0251,0.0421,0.0428,0.024,0.027,0.0266,0.0261,0.0595,0.0597,0.0599,0.06,0,-0.0406,-0.0396,-0.0391,-0.0381,-0.037,-0.0338,-0.0308,-0.0273,-0.0198,-0.0152,-0.0087,-0.0051,0.0109,0.0259,0.0352,0.0394,0.0415,0.0452,0.0297,0.054,0.0506,0.0536,0.0524,0.0616,0.0614,0.0613,0.0612,0.0612,-0.0445,-0.0453,-0.0445,-0.0437,-0.042,-0.0388,-0.037,-0.0323,-0.0277,-0.0184,-0.0109,0.0029,0.0219,0.043,0.0465,0.0529,0.0523,0.0541,0.0539,0.0534,0.0527,0.0492,0.0596,0.0594,0.0593,0.0592,0.0591,0,-0.0487,-0.049,-0.0496,-0.0482,-0.048,-0.0449,-0.039,-0.0369,-0.0341,-0.0181,-0.0113,0.0144,0.037,0.0493,0.069,0.0727,0.0745,0.0642,0.0707,0.0696,0.0686,0.0685,0.0797,0.0796,0.0795,0.0794,0,0,-0.0508,-0.0531,-0.0533,-0.0543,-0.0535,-0.0517,-0.049,-0.0463,-0.0342,-0.0239,-0.0037,0.0248,0.0489,0.0628,0.0701,0.0752,0.0667,0.0722,0.0583,0.0645,0.063,0.0688,0.0683,0,0,0,0,0]}],[{"header":{"parameterUnit":"m.s-1","parameterCategory":2,"la1":30.2991,"la2":30.254,"lo1":-89.0895,"lo2":-89.0444,"dy":0.0017,"dx":0.0017,"nx":28,"ny":28,"refTime":"2023-08-17T03:00:00:Z","depth":"4","parameterNumber":2,"parameterNumberName":"U-component_of_CURRENTS"},"data":[0,0,0,0,0,0,0,0,0,0,0,0,0,0,0,0,0,0,0,0,0,0,0,0,0,0,0,0,0,0,0,0,0,0,0,0,0,0,0,0,0,0,0,0,0,0,0,0,0,0,0,0,0,0,0,0,0,0,-0.0892,-0.0892,0,-0.0876,-0.0875,-0.0875,-0.0873,-0.0874,-0.0874,-0.0875,-0.0902,-0.0902,-0.0903,0,0,0,0,0,0,0,0,0,0,0,0,0,-0.0907,-0.0907,-0.0892,-0.0892,-0.0892,-0.0876,-0.0875,-0.0875,-0.0873,-0.0874,-0.0874,-0.0875,-0.0902,-0.0902,-0.0903,0,0,0,0,0,0,0,0,0,0,0,0,0,-0.0894,-0.0907,-0.0892,-0.0892,-0.0892,-0.0876,-0.0875,-0.0875,-0.0873,-0.0874,-0.0874,-0.0875,-0.0902,-0.0902,-0.0903,-0.0893,0,0,-0.0904,-0.0905,0,0,0,0,0,0,0,0,-0.0895,-0.0893,-0.0892,-0.0892,-0.0892,-0.088,-0.0891,-0.0884,-0.0873,-0.0877,-0.0875,-0.0875,-0.09,-0.0901,-0.0892,-0.0895,-0.0896,-0.0904,-0.0905,-0.0905,-0.0905,0,0,0,0,0,0,0,-0.0896,-0.0894,-0.0883,-0.0892,-0.0892,-0.0887,-0.0886,-0.0889,-0.0884,-0.0877,-0.0878,-0.088,-0.09,-0.0891,-0.0893,-0.0896,-0.0904,-0.0905,-0.0905,-0.0905,-0.0966,-0.0967,0,0,0,0,0,0,-0.0903,-0.0895,-0.0884,-0.0883,-0.0898,-0.0887,-0.0885,-0.0881,-0.0883,-0.0884,-0.0879,-0.088,-0.089,-0.0892,-0.0894,-0.0943,-0.0905,-0.0905,-0.0906,-0.0965,-0.0966,-0.0968,0,0,0,0,0,0,-0.0904,-0.0902,-0.0884,-0.0891,-0.0889,-0.0886,-0.0881,-0.088,-0.0885,-0.0885,-0.0887,-0.0887,-0.089,-0.0893,-0.0906,-0.0942,-0.0906,-0.0906,-0.0963,-0.0965,-0.0967,-0.1003,0,0,0,0,0,0,-0.0904,-0.0902,-0.0908,-0.0891,-0.0889,-0.0885,-0.0881,-0.0879,-0.0886,-0.0887,-0.0892,-0.0894,-0.0891,-0.0905,-0.0906,-0.0942,-0.0907,-0.0961,-0.0964,-0.0966,-0.1,-0.1006,-0.1011,0,0,0,0,0,-0.0904,-0.0903,-0.0908,-0.0908,-0.0895,-0.0885,-0.0883,-0.0882,-0.0886,-0.0888,-0.0892,-0.0895,-0.0923,-0.0906,-0.0907,-0.0944,-0.096,-0.0963,-0.0966,-0.0998,-0.1005,-0.1011,0,0,0,0,0,0,-0.0911,-0.0903,-0.0908,-0.0905,-0.0904,-0.0887,-0.0889,-0.0889,-0.0892,-0.0898,-0.0897,-0.0899,-0.0927,-0.0928,-0.091,-0.097,-0.0948,-0.0951,-0.0972,-0.0979,-0.0984,-0.0977,-0.0907,0,0,0,0,0,-0.0917,-0.0917,-0.0909,-0.0911,-0.0909,-0.0903,-0.0903,-0.0903,-0.09,-0.0902,-0.0909,-0.0922,-0.0937,-0.0951,-0.0958,-0.0984,-0.0976,-0.1014,-0.1019,-0.1024,-0.1021,-0.104,-0.1046,-0.0977,-0.0977,-0.0977,0,0,-0.0924,-0.0918,-0.0921,-0.0913,-0.0911,-0.0911,-0.0904,-0.0906,-0.091,-0.0906,-0.092,-0.0935,-0.0946,-0.0974,-0.099,-0.0983,-0.1039,-0.1027,-0.1031,-0.1025,-0.1043,-0.105,-0.1056,-0.0979,-0.0979,-0.0979,0,0,-0.0927,-0.0929,-0.0928,-0.0926,-0.0927,-0.0925,-0.093,-0.0925,-0.0928,-0.0939,-0.0947,-0.0975,-0.0994,-0.1011,-0.1021,-0.106,-0.106,-0.1083,-0.1112,-0.1131,-0.1137,-0.1141,-0.1134,-0.1138,-0.1094,-0.1094,-0.1094,0,-0.094,-0.093,-0.0928,-0.0924,-0.0926,-0.0934,-0.0933,-0.0936,-0.094,-0.0947,-0.0951,-0.0995,-0.1008,-0.1046,-0.107,-0.1072,-0.1078,-0.1085,-0.1137,-0.1142,-0.1146,-0.1138,-0.1141,-0.1096,-0.1096,-0.1095,-0.1095,0,-0.0933,-0.0935,-0.0933,-0.0935,-0.0937,-0.0939,-0.0943,-0.0955,-0.0967,-0.0974,-0.101,-0.1028,-0.1058,-0.1082,-0.1089,-0.1142,-0.1134,-0.1134,-0.1117,-0.1155,-0.1144,-0.1147,-0.1099,-0.1098,-0.1097,-0.1097,0,0,-0.0936,-0.0931,-0.0932,-0.0931,-0.0941,-0.0937,-0.0955,-0.0966,-0.098,-0.1007,-0.1024,-0.1073,-0.1098,-0.1112,-0.1139,-0.1169,-0.1207,-0.1178,-0.1178,-0.1164,-0.1241,-0.109,-0.1078,-0.1227,-0.1228,-0.1229,-0.1219,0,-0.0934,-0.0927,-0.0927,-0.0931,-0.0926,-0.0941,-0.0954,-0.0971,-0.0992,-0.1014,-0.1048,-0.1081,-0.1105,-0.1138,-0.1171,-0.1198,-0.1219,-0.1209,-0.1213,-0.1212,-0.1067,-0.1078,-0.1232,-0.1221,-0.1222,-0.1222,-0.1223,0,-0.092,-0.0918,-0.0918,-0.0919,-0.0919,-0.0932,-0.0954,-0.0964,-0.1002,-0.1025,-0.1072,-0.1096,-0.1153,-0.1163,-0.122,-0.1219,-0.1236,-0.1249,-0.1249,-0.1094,-0.1066,-0.1178,-0.1228,-0.1228,-0.1227,-0.1227,-0.1226,0,-0.0906,-0.0906,-0.0907,-0.0908,-0.092,-0.093,-0.0941,-0.0975,-0.0985,-0.1043,-0.1065,-0.1124,-0.1157,-0.1195,-0.1216,-0.1238,-0.125,-0.1275,-0.1146,-0.1135,-0.126,-0.1255,-0.1304,-0.1304,-0.1304,-0.1304,-0.1304,0,-0.0886,-0.0887,-0.0904,-0.0904,-0.0907,-0.0921,-0.0936,-0.0963,-0.1001,-0.1012,-0.1077,-0.1089,-0.1173,-0.1182,-0.1209,-0.1161,-0.124,-0.1138,-0.112,-0.1275,-0.1272,-0.1262,-0.1257,-0.1304,-0.1304,-0.1304,-0.1304,0,-0.086,-0.0876,-0.0874,-0.0892,-0.09,-0.0902,-0.0924,-0.0931,-0.0986,-0.1002,-0.1025,-0.108,-0.1077,-0.1107,-0.1148,-0.1127,-0.1112,-0.1075,-0.1208,-0.12,-0.0993,-0.0991,-0.0945,-0.0939,-0.0935,-0.0931,-0.0927,0,-0.084,-0.0841,-0.086,-0.086,-0.087,-0.0879,-0.0882,-0.0926,-0.0929,-0.0974,-0.0967,-0.0984,-0.1003,-0.0932,-0.0977,-0.0965,-0.0963,-0.0962,-0.1009,-0.0967,-0.0956,-0.0961,-0.0965,-0.092,-0.0919,-0.0918,-0.0916,0,-0.0803,-0.0822,-0.0822,-0.0823,-0.0829,-0.0817,-0.0823,-0.0822,-0.0859,-0.0918,-0.0891,-0.0878,-0.0844,-0.0846,-0.0818,-0.0824,-0.0971,-0.0914,-0.0926,-0.097,-0.0937,-0.0932,-0.0941,-0.09,-0.0903,-0.0904,-0.0905,0,-0.0778,-0.0769,-0.0778,-0.0768,-0.0768,-0.0738,-0.0753,-0.0738,-0.0747,-0.0801,-0.0781,-0.079,-0.0828,-0.0767,-0.0746,-0.0717,-0.073,-0.0752,-0.0773,-0.0791,-0.074,-0.0676,-0.0531,0,0,0,0,0,-0.0742,-0.0725,-0.0716,-0.069,-0.0684,-0.0678,-0.0698,-0.0716,-0.0755,-0.0713,-0.0747,-0.0706,-0.0663,-0.0666,-0.0603,-0.0663,-0.0727,-0.0587,-0.0764,-0.0811,-0.083,-0.078,0,0,0,0,0,0,-0.0714,-0.0712,-0.0698,-0.0624,-0.0587,-0.0566,-0.0574,-0.0607,-0.0582,-0.0636,-0.0609,-0.0655,-0.0614,-0.0676,-0.0584,-0.0582,-0.0679,-0.0593,-0.0591,-0.08,-0.0817,-0.0832,-0.0788,0,0,0,0,0]},{"header":{"parameterUnit":"m.s-1","parameterCategory":2,"la1":30.2991,"la2":30.254,"lo1":-89.0895,"lo2":-89.0444,"dy":0.0017,"dx":0.0017,"nx":28,"ny":28,"refTime":"2023-08-17T03:00:00:Z","depth":"4","parameterNumber":3,"parameterNumberName":"V-component_of_CURRENTS"},"data":[0,0,0,0,0,0,0,0,0,0,0,0,0,0,0,0,0,0,0,0,0,0,0,0,0,0,0,0,0,0,0,0,0,0,0,0,0,0,0,0,0,0,0,0,0,0,0,0,0,0,0,0,0,0,0,0,0,0,-0.026,-0.0261,0,-0.0272,-0.0272,-0.0272,-0.0246,-0.0246,-0.0245,-0.0244,-0.0194,-0.0193,-0.0192,0,0,0,0,0,0,0,0,0,0,0,0,0,-0.0227,-0.0228,-0.026,-0.0261,-0.0261,-0.0272,-0.0272,-0.0272,-0.0246,-0.0245,-0.0245,-0.0244,-0.0194,-0.0193,-0.0192,0,0,0,0,0,0,0,0,0,0,0,0,0,-0.0238,-0.0228,-0.026,-0.0251,-0.025,-0.0272,-0.0272,-0.0272,-0.0246,-0.0245,-0.0245,-0.0244,-0.0194,-0.0193,-0.0192,-0.0204,0,0,-0.0189,-0.0188,0,0,0,0,0,0,0,0,-0.0238,-0.0239,-0.0252,-0.0252,-0.0251,-0.0259,-0.0242,-0.0247,-0.0247,-0.0246,-0.0244,-0.0243,-0.0212,-0.0209,-0.0211,-0.0202,-0.02,-0.0188,-0.0188,-0.0187,-0.0187,0,0,0,0,0,0,0,-0.0237,-0.0239,-0.0263,-0.0253,-0.0252,-0.025,-0.0251,-0.0243,-0.0231,-0.0246,-0.0244,-0.0249,-0.0211,-0.0212,-0.021,-0.0199,-0.0189,-0.0188,-0.0187,-0.0186,-0.0227,-0.0229,0,0,0,0,0,0,-0.024,-0.0238,-0.0262,-0.0263,-0.0244,-0.0252,-0.0252,-0.0255,-0.0232,-0.0229,-0.025,-0.0248,-0.0215,-0.0211,-0.0208,-0.0242,-0.0187,-0.0186,-0.0186,-0.0226,-0.0228,-0.023,0,0,0,0,0,0,-0.024,-0.0242,-0.0262,-0.0253,-0.0255,-0.0254,-0.0258,-0.0256,-0.0262,-0.0237,-0.0232,-0.0258,-0.0214,-0.0209,-0.0219,-0.0239,-0.0186,-0.0185,-0.0224,-0.0226,-0.0229,-0.0297,0,0,0,0,0,0,-0.0239,-0.0242,-0.0252,-0.0253,-0.0256,-0.0281,-0.0259,-0.0257,-0.0268,-0.0265,-0.0242,-0.0236,-0.0213,-0.0221,-0.0218,-0.0237,-0.0184,-0.0221,-0.0225,-0.0228,-0.0293,-0.0302,-0.031,0,0,0,0,0,-0.0237,-0.0255,-0.0252,-0.0255,-0.0267,-0.0283,-0.0284,-0.0278,-0.0269,-0.0278,-0.0271,-0.0237,-0.0239,-0.0222,-0.0217,-0.0236,-0.022,-0.0224,-0.0228,-0.0289,-0.03,-0.031,0,0,0,0,0,0,-0.0253,-0.0254,-0.0251,-0.027,-0.0279,-0.0279,-0.0291,-0.0287,-0.029,-0.0287,-0.0259,-0.0254,-0.0271,-0.0251,-0.0232,-0.0261,-0.0224,-0.0228,-0.0272,-0.0283,-0.0291,-0.0282,-0.0183,0,0,0,0,0,-0.026,-0.0269,-0.0273,-0.0291,-0.0296,-0.0296,-0.0303,-0.03,-0.0301,-0.0301,-0.0291,-0.0283,-0.0285,-0.0281,-0.0278,-0.0292,-0.0256,-0.0304,-0.0312,-0.032,-0.0312,-0.0288,-0.0293,-0.0243,-0.0243,-0.0243,0,0,-0.0274,-0.0276,-0.0283,-0.0295,-0.0299,-0.0316,-0.0297,-0.0313,-0.033,-0.0295,-0.0318,-0.0313,-0.0298,-0.0317,-0.0322,-0.03,-0.0317,-0.0325,-0.0331,-0.0318,-0.0292,-0.0297,-0.0301,-0.0245,-0.0245,-0.0245,0,0,-0.03,-0.0305,-0.0317,-0.0327,-0.0337,-0.034,-0.0347,-0.0355,-0.0359,-0.0383,-0.0367,-0.0377,-0.0378,-0.0373,-0.037,-0.0425,-0.0366,-0.0427,-0.0456,-0.0434,-0.0437,-0.0439,-0.0404,-0.0402,-0.0427,-0.0428,-0.0428,0,-0.0315,-0.0331,-0.0327,-0.0342,-0.0357,-0.0353,-0.0375,-0.0384,-0.0397,-0.0407,-0.0398,-0.0415,-0.0404,-0.0422,-0.0443,-0.0441,-0.0412,-0.0416,-0.0443,-0.0444,-0.0445,-0.0408,-0.0405,-0.0431,-0.0431,-0.0431,-0.043,0,-0.0343,-0.0362,-0.0375,-0.0389,-0.0405,-0.0427,-0.0437,-0.0455,-0.0462,-0.0468,-0.0493,-0.0486,-0.0489,-0.0498,-0.0486,-0.0498,-0.047,-0.0458,-0.0411,-0.0454,-0.0412,-0.0408,-0.0437,-0.0435,-0.0434,-0.0433,0,0,-0.0363,-0.0388,-0.0394,-0.0411,-0.0433,-0.045,-0.048,-0.0506,-0.0527,-0.0539,-0.0561,-0.0576,-0.0564,-0.056,-0.0548,-0.0533,-0.0523,-0.0501,-0.0498,-0.0454,-0.0461,-0.0391,-0.038,-0.0512,-0.0512,-0.0512,-0.0429,0,-0.0389,-0.0424,-0.0431,-0.0478,-0.05,-0.051,-0.0541,-0.0563,-0.0577,-0.0598,-0.0592,-0.0609,-0.0589,-0.0593,-0.0577,-0.0542,-0.0515,-0.0545,-0.0434,-0.043,-0.0355,-0.0374,-0.0511,-0.0426,-0.0425,-0.0424,-0.0423,0,-0.0413,-0.0434,-0.0477,-0.0521,-0.0532,-0.0562,-0.0604,-0.063,-0.0652,-0.0661,-0.0665,-0.0655,-0.0647,-0.0621,-0.056,-0.0579,-0.0521,-0.0485,-0.048,-0.0384,-0.0353,-0.0374,-0.0415,-0.0416,-0.0416,-0.0417,-0.0417,0,-0.0427,-0.0471,-0.0508,-0.0523,-0.0568,-0.0595,-0.0621,-0.0652,-0.0675,-0.0695,-0.0702,-0.0691,-0.0677,-0.062,-0.0542,-0.0551,-0.0455,-0.0457,-0.0335,-0.0329,-0.0384,-0.0382,-0.0396,-0.0396,-0.0396,-0.0397,-0.0397,0,-0.0452,-0.0486,-0.0519,-0.0543,-0.0593,-0.0616,-0.0666,-0.069,-0.0716,-0.0733,-0.0729,-0.0715,-0.0674,-0.0613,-0.0545,-0.0418,-0.045,-0.0331,-0.0303,-0.0417,-0.042,-0.0381,-0.038,-0.0394,-0.0394,-0.0395,-0.0395,0,-0.0468,-0.0489,-0.0536,-0.0584,-0.0603,-0.064,-0.0693,-0.0723,-0.0742,-0.0757,-0.0761,-0.0733,-0.0639,-0.0573,-0.047,-0.0408,-0.0307,-0.0248,-0.0362,-0.0343,-0.0197,-0.0201,-0.0115,-0.0112,-0.011,-0.0107,-0.0106,0,-0.0481,-0.0504,-0.0561,-0.059,-0.0618,-0.0668,-0.0702,-0.0737,-0.0756,-0.0748,-0.0745,-0.0672,-0.0631,-0.0424,-0.0367,-0.0222,-0.0196,-0.0156,-0.0191,-0.0187,-0.0168,-0.0176,-0.0184,-0.0101,-0.0101,-0.01,-0.0099,0,-0.0505,-0.0525,-0.0559,-0.061,-0.0654,-0.0702,-0.0743,-0.0749,-0.0768,-0.0781,-0.0689,-0.0598,-0.0479,-0.0365,-0.0249,-0.0152,-0.0201,-0.0128,-0.0134,-0.0166,-0.0169,-0.0154,-0.0165,-0.009,-0.0091,-0.0092,-0.0093,0,-0.0521,-0.0546,-0.0584,-0.0628,-0.0682,-0.0718,-0.0739,-0.0726,-0.0732,-0.0702,-0.0658,-0.0545,-0.0491,-0.0324,-0.022,-0.0117,-0.0096,-0.0084,-0.0092,-0.0101,-0.0126,-0.013,-0.0006,0,0,0,0,0,-0.0532,-0.0556,-0.0598,-0.0649,-0.07,-0.0729,-0.076,-0.0769,-0.0763,-0.0681,-0.0664,-0.0538,-0.0358,-0.0292,-0.0168,-0.0197,-0.011,-0.0053,-0.0108,-0.0039,-0.0049,-0.0076,0,0,0,0,0,0,-0.0542,-0.0581,-0.0594,-0.0652,-0.0687,-0.0745,-0.0761,-0.0759,-0.0698,-0.0667,-0.0558,-0.0508,-0.0332,-0.0417,-0.0163,-0.0137,-0.0155,0.0025,0.0028,-0.0033,-0.0042,-0.0051,-0.0082,0,0,0,0,0]}]]